Location: Chmeln�
(49.6483°N, 14.9871°E)
Time: 08:20:19
(UTC+00:00)

Landsat 7 - Pass Details

Date: 18 September 2020
Orbit: 701 x 703 km, 98.1° (Epoch: 28 October)

Event Time Altitude Azimuth Distance (km) Brightness Sun altitude
Exits shadow 19:25:46 46° 71° (ENE) 948 4.2 -22.3°
Maximum altitude 19:25:49 46° 69° (ENE) 947 4.2 -22.3°
Drops below altitude 10° 19:30:23 10° 357° (N) 2,184 6.8 -22.9°
Sets 19:32:43 0° 351° (N) 3,107 7.8 -23.2°
